Wind_Speed
7 4 4 4 2 3 5 2 7 7 7 10 17 19 17 22 9 10 7 10 6 8 8 11 12 10 8 8 11 10 14 15 12 13 14 12 11 12 13 12 12 11 12 11 10 8 8 3 4
6 5 4 3 2 4 4 7 7 5 7 5 12 19 19 14 18 11 4 13 8 9 7 11 9 9 10 9 10 10 12 15 16 15 15 15 14 13 12 13 13 12 11 12 11 12 8 4 5
7 5 3 2 2 3 5 10 7 5 4 4 6 14 9 5 12 6 8 10 9 10 9 9 8 8 9 11 12 13 16 17 18 19 19 19 18 16 15 14 13 12 11 12 12 11 9 7 5
8 2 5 2 5 4 7 8 9 8 7 3 13 12 9 5 5 7 6 7 4 7 9 9 8 9 10 11 13 15 17 18 19 19 19 19 19 18 17 18 17 16 14 13 11 10 10 8 7
7 4 3 4 8 3 8 11 7 5 6 6 11 10 11 8 9 9 7 8 6 9 9 10 10 11 11 12 14 15 17 17 17 18 18 17 19 19 18 18 18 18 16 15 14 13 9 8 9
4 4 4 5 6 5 8 8 6 6 6 8 14 14 7 9 10 9 8 9 10 12 8 11 15 13 13 14 15 15 15 16 17 18 18 20 20 21 20 20 19 18 16 16 14 12 12 11 10
3 3 8 7 7 5 5 8 7 4 10 6 13 10 12 8 11 9 9 9 12 12 13 10 14 15 10 12 13 12 14 15 16 17 17 16 17 17 19 18 18 17 16 16 14 14 12 10 11
3 3 7 4 7 7 9 6 3 3 7 8 4 6 10 10 11 10 8 9 11 10 14 12 12 12 9 10 12 10 13 15 16 18 16 13 10 12 13 14 18 15 14 14 14 13 13 11 11
2 2 4 5 3 5 14 6 6 5 11 6 5 13 15 12 12 10 9 7 9 14 9 13 11 10 9 7 8 8 10 11 15 17 18 16 13 13 11 12 9 13 15 14 15 16 16 11 11
4 3 4 10 9 7 13 13 9 5 12 7 9 7 10 11 11 12 10 10 8 10 13 7 10 9 8 5 4 6 11 13 16 19 21 20 18 18 16 12 9 11 7 8 10 12 16 17 10
5 2 4 6 8 2 12 9 10 8 5 13 15 12 12 12 13 11 10 10 10 9 10 9 6 5 3 2 4 8 12 15 18 20 22 22 21 20 19 17 15 14 14 13 8 6 10 17 17
4 3 4 2 2 3 10 10 5 9 2 11 16 14 13 12 12 12 11 10 8 9 9 8 6 4 2 2 6 9 13 16 18 19 20 21 20 20 19 18 15 14 13 11 10 8 6 8 15
8 5 2 3 2 4 9 9 6 5 8 10 14 15 14 13 13 13 12 10 8 8 9 9 7 5 4 4 7 11 13 16 17 18 19 20 20 20 20 19 18 16 16 16 17 15 11 9 9
3 6 4 4 6 6 6 7 7 15 13 12 14 16 16 15 14 13 13 12 10 10 11 11 9 7 6 8 10 12 13 15 17 18 18 19 19 18 19 19 19 19 20 21 20 17 15 14 13
4 5 4 9 11 5 9 8 11 16 20 18 17 18 17 17 17 15 14 14 12 14 13 12 10 9 10 10 11 12 14 15 16 16 16 18 19 19 20 19 19 20 22 23 23 22 20 17 15
6 8 4 11 14 7 10 7 20 21 24 22 21 21 21 21 21 18 22 19 19 16 15 16 13 12 11 11 11 11 13 14 15 15 16 16 18 18 18 18 18 19 22 22 22 22 24 23 21
7 5 13 7 17 6 11 7 4 27 23 23 24 25 26 23 22 20 23 22 20 18 16 16 14 13 12 11 10 11 12 14 15 15 15 15 15 16 17 18 18 20 23 22 23 24 20 22 23
7 12 9 10 14 14 11 16 5 18 22 25 26 27 28 28 28 24 22 21 20 20 19 17 15 13 12 11 11 11 11 13 15 16 15 16 14 15 17 19 20 22 24 25 25 23 21 21 23
2 9 10 7 12 10 14 14 15 24 27 24 29 31 31 30 26 26 25 22 20 21 18 16 16 15 13 13 12 12 12 12 15 15 15 16 15 17 18 17 19 20 20 24 26 26 27 25 22
9 9 10 9 6 5 9 14 15 19 28 36 32 30 31 29 28 27 27 24 21 19 16 18 15 15 15 14 13 12 11 13 13 11 15 14 16 17 18 18 19 20 22 23 26 25 27 27 24
9 11 9 8 3 6 8 11 20 16 26 29 36 34 32 32 32 30 31 26 24 22 19 20 15 16 15 15 13 11 12 11 9 13 13 12 17 16 17 17 20 21 21 23 24 25 25 29 28
12 6 9 4 3 4 7 6 12 12 17 19 29 34 34 32 31 32 32 27 24 25 24 19 20 16 14 13 13 13 13 11 12 10 11 14 15 17 16 20 20 21 22 24 25 26 27 29 32
7 2 2 5 6 7 10 5 5 8 7 14 20 30 34 33 31 33 31 27 25 24 24 25 20 15 14 15 14 13 12 13 12 12 13 14 15 16 20 20 20 22 24 26 26 28 31 33 35
9 3 2 3 3 7 12 12 8 10 12 7 14 28 29 32 31 31 31 28 27 26 24 24 19 18 16 18 13 11 13 13 13 14 14 16 18 21 20 22 23 24 27 28 29 33 31 33 33
4 4 3 4 4 7 5 12 15 6 4 3 7 13 26 27 29 29 30 32 31 30 28 29 26 20 20 14 11 14 13 13 14 14 16 18 21 22 23 23 25 27 27 31 31 32 35 34 36
12 10 6 6 7 10 4 6 5 7 9 6 15 12 20 24 28 31 32 33 33 31 30 29 23 20 18 14 16 13 11 12 15 18 18 21 22 24 23 25 24 30 32 30 32 34 35 36 36
8 10 12 10 15 8 7 11 10 7 8 10 17 16 22 26 29 31 32 32 31 30 29 27 24 22 20 18 14 13 13 13 16 19 21 22 23 25 25 27 31 30 30 32 32 34 35 34 33
10 2 4 5 5 8 8 10 6 6 12 11 10 19 21 26 28 30 32 32 31 29 26 24 25 23 21 18 16 16 15 16 17 18 20 22 24 24 26 30 30 33 32 32 34 33 33 33 39
6 7 8 4 8 4 10 7 6 6 4 14 10 22 25 28 30 31 31 30 29 27 26 27 25 24 22 20 16 18 18 16 17 20 22 23 23 26 28 31 32 33 33 33 32 34 37 38 40
18 14 21 8 8 9 15 17 7 3 8 11 19 23 24 26 28 28 29 28 28 29 27 27 27 25 22 19 20 19 17 17 19 21 22 23 25 27 29 32 33 33 33 33 35 36 36 38 42
Wind_Direction
10 26 17 5 325 153 119 55 122 140 93 77 63 76 61 52 51 110 133 34 35 31 49 1 4 25 31 29 37 44 46 48 51 44 44 39 25 20 22 19 16 12 10 1 358 352 340 326 320
15 27 15 312 265 169 107 134 81 60 104 77 98 118 83 64 83 80 117 34 46 51 4 354 5 28 37 42 43 54 53 54 55 52 42 36 24 23 14 14 14 9 7 9 0 353 348 313 300
6 360 322 252 270 40 123 108 126 141 153 271 128 58 56 32 50 79 70 50 28 9 2 38 30 34 43 49 51 60 57 54 50 49 42 34 27 23 18 12 10 8 2 360 359 353 351 328 302
5 358 277 250 50 27 113 106 131 151 141 74 91 88 84 58 87 73 54 68 55 33 12 56 49 48 52 63 66 61 56 55 50 45 40 36 33 30 23 18 11 4 359 358 355 355 341 331 317
330 287 265 231 82 64 97 123 190 185 126 159 113 89 106 94 92 89 57 82 65 79 28 62 67 64 70 67 65 64 60 51 43 38 32 29 29 22 20 17 15 13 5 356 351 345 339 325 310
296 257 264 209 137 139 123 161 185 183 137 92 103 111 104 130 111 84 81 91 89 96 59 58 62 62 72 75 73 66 56 49 45 42 36 32 29 21 20 20 13 8 5 5 355 342 335 316 301
269 274 267 298 119 141 151 174 202 190 135 85 147 128 139 138 120 111 98 87 105 103 106 68 64 52 65 76 71 61 54 46 38 38 36 38 20 1 6 9 5 7 5 2 359 352 335 316 299
324 296 264 321 137 185 117 179 65 138 56 107 27 166 156 162 137 130 117 113 97 107 114 107 107 90 38 86 74 54 40 31 25 21 22 21 23 351 4 352 358 359 0 359 358 353 346 316 300
302 281 271 235 209 130 142 137 189 76 118 103 65 92 133 156 137 146 142 132 134 118 103 123 110 122 104 65 65 36 29 17 13 10 11 8 7 359 4 356 345 354 351 0 353 348 347 330 302
237 242 325 357 62 106 157 165 163 177 126 133 111 120 128 129 151 165 157 148 138 148 127 128 137 137 131 105 46 18 15 9 7 4 3 3 2 0 359 3 343 346 346 352 341 351 337 333 328
193 277 7 19 54 78 161 186 164 186 176 178 167 151 143 148 157 160 157 164 170 162 155 140 145 139 152 125 12 6 7 5 4 360 357 356 356 355 355 355 356 351 351 350 350 332 327 334 338
254 251 336 77 35 186 171 157 188 215 140 167 168 159 156 155 160 166 163 158 180 181 173 165 161 184 189 336 345 356 359 1 358 356 351 348 349 348 348 351 349 345 345 335 322 311 301 306 320
232 129 248 114 166 241 185 148 190 179 152 142 152 165 173 170 170 171 174 175 177 195 192 199 211 226 251 298 334 343 355 354 353 348 347 344 348 348 349 349 350 346 336 327 322 315 302 293 277
358 121 179 182 200 200 184 181 159 211 187 182 189 183 187 186 184 182 178 182 191 208 214 217 231 260 285 309 334 339 344 346 346 346 346 343 346 349 349 351 350 346 343 341 338 334 314 291 276
191 164 190 205 187 193 208 210 222 210 191 192 197 195 196 197 194 203 188 195 203 220 224 230 242 261 281 303 321 330 334 337 340 344 341 338 345 350 355 357 355 349 345 343 341 339 332 319 291
201 231 205 188 184 194 181 257 216 206 183 200 203 204 203 210 212 196 211 210 206 224 228 238 245 255 272 292 310 316 320 329 333 336 332 336 343 348 352 353 352 344 344 346 344 340 328 321 311
220 245 218 159 191 159 198 273 248 174 188 206 208 211 209 214 216 206 220 212 216 210 226 242 245 253 269 285 293 302 314 323 324 328 327 334 337 341 344 346 344 339 339 340 337 333 330 320 316
222 212 247 241 191 208 194 242 181 190 200 211 215 216 216 214 215 210 217 217 220 220 222 229 245 257 267 277 281 293 309 318 320 325 325 331 334 335 337 341 341 339 336 333 333 331 326 314 311
357 298 309 266 146 182 228 242 240 213 210 217 219 219 219 219 215 218 221 222 215 225 224 233 239 245 258 272 281 295 309 314 317 322 324 331 334 336 340 341 329 328 325 325 326 326 323 323 318
258 270 276 286 160 184 255 257 255 236 213 212 214 217 221 218 214 212 213 220 225 231 221 219 241 252 259 274 282 294 308 314 326 325 311 326 328 337 331 326 322 319 322 319 323 324 321 318 319
232 246 258 277 92 242 266 278 251 248 243 217 217 216 217 219 213 209 214 225 230 218 219 231 216 245 265 274 286 297 306 314 315 296 320 318 321 323 318 315 310 317 313 315 315 312 311 309 305
245 273 240 309 303 257 140 284 299 277 225 229 217 208 212 218 219 212 219 222 232 223 219 230 235 239 250 271 281 293 307 312 304 309 304 305 313 316 309 302 310 308 309 307 309 307 305 305 303
241 83 181 237 257 284 253 255 240 268 203 218 213 211 209 211 217 212 213 224 229 227 224 223 233 232 244 252 264 291 303 302 304 301 302 313 315 300 301 306 302 304 303 304 306 301 300 296 299
109 148 209 271 246 253 228 228 254 232 231 230 203 204 206 206 210 215 213 217 223 222 224 230 227 224 229 248 268 281 287 295 292 301 308 303 303 306 306 306 305 301 299 301 298 302 301 298 296
176 176 235 233 192 245 238 219 233 217 290 248 154 182 195 203 202 207 205 212 216 220 221 226 230 225 235 251 256 272 282 288 298 297 291 296 298 307 304 302 299 304 301 297 300 300 299 300 293
196 192 194 238 228 254 76 235 245 223 140 146 142 167 183 193 201 205 209 211 215 222 221 229 233 233 239 236 254 275 281 279 284 283 289 293 299 300 302 305 303 298 305 302 299 300 299 300 295
173 217 239 280 278 278 254 261 263 235 160 158 160 168 181 192 198 206 209 213 214 221 224 226 230 229 232 241 258 260 271 274 275 281 288 293 296 300 300 300 302 304 302 301 301 299 302 303 294
238 148 188 221 245 237 245 241 234 206 180 170 177 185 193 195 199 207 210 212 212 219 226 226 227 229 235 241 242 257 265 274 276 282 287 287 297 301 299 302 301 301 301 302 300 300 298 297 295
192 213 229 230 215 228 261 252 175 66 56 180 180 192 195 196 203 208 210 211 213 215 218 220 225 223 225 234 243 251 269 277 278 280 284 295 298 296 299 301 304 303 300 303 300 298 298 298 302
209 210 207 210 215 234 241 246 272 291 186 152 170 188 200 208 207 209 209 207 212 217 216 219 217 222 227 231 242 257 270 271 278 286 288 292 293 296 300 301 302 303 299 300 299 299 300 300 305
Height
1524 1523 1522 1522 1530 1524 1540 1542 1533 1539 1540 1540 1538 1541 1549 1548 1552 1569 1565 1565 1564 1562 1558 1559 1558 1557 1556 1555 1554 1554 1553 1552 1551 1551 1550 1550 1550 1549 1548 1548 1548 1547 1547 1547 1547 1547 1546 1546 1547
1525 1524 1524 1523 1533 1537 1543 1533 1540 1539 1541 1540 1541 1545 1548 1555 1558 1562 1564 1565 1564 1562 1559 1559 1558 1557 1556 1556 1555 1554 1554 1552 1552 1552 1552 1551 1550 1550 1549 1549 1548 1548 1547 1547 1547 1547 1546 1547 1547
1525 1526 1527 1524 1525 1543 1542 1535 1540 1541 1542 1541 1542 1545 1551 1559 1560 1563 1564 1564 1563 1560 1561 1559 1558 1558 1557 1557 1556 1556 1555 1555 1554 1553 1553 1553 1552 1551 1550 1549 1548 1548 1547 1547 1547 1546 1546 1547 1547
1527 1528 1527 1529 1531 1531 1532 1536 1539 1540 1541 1541 1543 1551 1558 1560 1561 1563 1563 1565 1564 1562 1561 1560 1559 1559 1558 1558 1557 1557 1557 1556 1556 1555 1554 1554 1553 1552 1551 1550 1549 1548 1547 1546 1546 1546 1546 1546 1546
1529 1528 1529 1530 1533 1531 1532 1537 1539 1538 1540 1542 1544 1553 1558 1561 1562 1563 1563 1564 1564 1564 1562 1561 1560 1560 1560 1559 1559 1558 1558 1557 1557 1556 1556 1555 1554 1553 1551 1550 1549 1548 1547 1546 1546 1545 1545 1544 1545
1530 1528 1532 1535 1530 1531 1535 1538 1539 1538 1540 1543 1548 1553 1560 1561 1562 1563 1564 1563 1564 1565 1563 1562 1561 1561 1560 1560 1560 1560 1559 1558 1558 1557 1557 1556 1554 1554 1552 1550 1549 1547 1546 1546 1545 1543 1544 1543 1543
1531 1529 1532 1523 1532 1535 1534 1538 1539 1538 1541 1544 1546 1550 1559 1560 1561 1563 1564 1564 1564 1565 1565 1563 1563 1562 1561 1561 1561 1561 1560 1559 1559 1558 1557 1556 1554 1554 1552 1550 1549 1547 1545 1544 1543 1542 1541 1541 1541
1531 1529 1528 1522 1532 1535 1533 1538 1538 1539 1545 1545 1546 1548 1555 1558 1560 1563 1564 1564 1564 1564 1563 1564 1564 1566 1561 1561 1560 1561 1560 1559 1558 1557 1556 1555 1554 1552 1551 1549 1547 1546 1545 1543 1542 1540 1539 1538 1538
1532 1535 1535 1526 1525 1529 1533 1538 1541 1542 1543 1546 1549 1549 1553 1556 1559 1562 1563 1563 1563 1563 1563 1563 1563 1563 1562 1562 1560 1560 1559 1558 1557 1555 1554 1553 1551 1550 1548 1547 1545 1544 1542 1542 1540 1539 1537 1536 1536
1531 1533 1528 1524 1521 1528 1533 1536 1540 1543 1544 1548 1550 1552 1553 1555 1558 1561 1561 1562 1562 1561 1561 1561 1560 1559 1560 1559 1559 1559 1558 1556 1554 1553 1551 1549 1547 1546 1544 1543 1541 1540 1540 1539 1539 1538 1536 1535 1534
1528 1531 1528 1528 1527 1528 1533 1536 1538 1540 1544 1545 1548 1551 1553 1555 1556 1558 1559 1560 1559 1558 1558 1558 1559 1558 1558 1558 1558 1557 1555 1554 1552 1550 1548 1546 1544 1543 1541 1540 1538 1537 1536 1536 1535 1535 1535 1534 1533
1530 1528 1529 1530 1530 1530 1533 1535 1538 1539 1541 1541 1544 1549 1552 1554 1555 1557 1558 1558 1557 1556 1556 1557 1557 1557 1557 1556 1555 1554 1553 1552 1550 1548 1546 1544 1542 1540 1538 1537 1536 1534 1534 1532 1531 1531 1531 1531 1531
1528 1527 1529 1530 1532 1532 1533 1535 1537 1538 1540 1541 1543 1547 1550 1552 1553 1554 1555 1556 1556 1555 1554 1554 1555 1555 1555 1555 1554 1552 1551 1550 1548 1546 1544 1542 1541 1539 1537 1535 1534 1533 1532 1530 1529 1528 1527 1527 1528
1524 1526 1529 1531 1532 1531 1532 1535 1536 1537 1538 1541 1542 1544 1547 1548 1549 1551 1552 1554 1554 1552 1551 1552 1553 1553 1553 1552 1551 1550 1549 1547 1545 1544 1542 1539 1538 1536 1534 1533 1531 1530 1528 1527 1526 1525 1524 1523 1523
1527 1530 1530 1530 1531 1532 1534 1535 1531 1532 1533 1537 1539 1541 1543 1544 1546 1546 1548 1549 1550 1549 1548 1549 1550 1550 1550 1549 1549 1547 1546 1545 1543 1541 1539 1537 1535 1533 1531 1529 1528 1527 1525 1524 1523 1522 1521 1521 1520
1528 1526 1536 1521 1526 1529 1533 1531 1520 1526 1529 1532 1534 1537 1538 1539 1540 1542 1543 1544 1545 1545 1545 1546 1547 1547 1547 1546 1546 1544 1543 1542 1541 1539 1537 1535 1533 1531 1529 1528 1526 1525 1523 1521 1519 1518 1518 1517 1516
1527 1531 1528 1526 1520 1523 1529 1526 1509 1519 1525 1527 1529 1531 1532 1534 1535 1537 1537 1538 1539 1541 1541 1542 1543 1543 1543 1543 1542 1541 1540 1539 1537 1536 1534 1532 1531 1529 1527 1526 1525 1523 1521 1519 1517 1516 1515 1513 1511
1525 1527 1516 1516 1515 1517 1523 1521 1520 1520 1520 1520 1522 1524 1525 1526 1527 1531 1532 1533 1535 1536 1538 1538 1538 1539 1539 1539 1538 1538 1537 1536 1534 1532 1531 1530 1528 1527 1525 1523 1522 1520 1518 1516 1514 1512 1511 1510 1507
1511 1514 1512 1503 1501 1513 1515 1513 1511 1512 1513 1513 1513 1515 1517 1519 1523 1525 1526 1528 1530 1532 1533 1534 1535 1535 1534 1535 1535 1534 1534 1532 1531 1529 1528 1526 1525 1524 1522 1520 1518 1517 1516 1513 1511 1509 1506 1505 1504
1510 1516 1515 1505 1507 1511 1512 1508 1501 1499 1497 1498 1502 1506 1509 1514 1517 1519 1520 1522 1525 1527 1529 1530 1530 1530 1530 1531 1531 1531 1529 1529 1527 1527 1526 1524 1522 1520 1519 1518 1517 1515 1513 1511 1509 1507 1504 1503 1502
1512 1515 1513 1511 1507 1507 1511 1509 1494 1485 1487 1488 1490 1494 1500 1504 1509 1512 1512 1515 1519 1522 1525 1526 1527 1526 1526 1526 1527 1526 1526 1525 1525 1524 1522 1521 1520 1518 1517 1515 1514 1512 1511 1509 1507 1505 1503 1499 1498
1515 1503 1504 1509 1515 1528 1507 1522 1492 1479 1478 1477 1478 1484 1489 1495 1501 1505 1505 1508 1512 1516 1520 1521 1522 1522 1522 1522 1522 1522 1522 1521 1521 1520 1519 1518 1517 1515 1514 1512 1510 1508 1507 1504 1503 1501 1499 1496 1491
1507 1505 1508 1510 1515 1517 1510 1523 1488 1468 1468 1467 1467 1473 1479 1485 1493 1496 1499 1502 1507 1510 1513 1515 1517 1518 1519 1519 1518 1518 1518 1518 1516 1516 1515 1514 1513 1512 1510 1508 1506 1505 1503 1500 1498 1496 1493 1491 1487
1504 1510 1512 1512 1519 1531 1506 1507 1483 1474 1459 1458 1458 1463 1470 1477 1484 1490 1495 1499 1501 1505 1508 1509 1512 1514 1514 1514 1515 1514 1514 1513 1512 1511 1510 1510 1509 1507 1506 1504 1502 1500 1498 1496 1493 1490 1487 1484 1481
1507 1513 1529 1535 1535 1522 1480 1488 1470 1450 1450 1453 1456 1460 1465 1472 1478 1484 1488 1492 1496 1498 1502 1504 1506 1508 1509 1510 1510 1510 1509 1509 1507 1507 1506 1505 1504 1502 1501 1499 1497 1495 1493 1490 1487 1484 1480 1477 1474
1502 1503 1515 1520 1516 1497 1485 1495 1467 1446 1446 1451 1453 1458 1463 1469 1473 1478 1482 1486 1489 1492 1496 1497 1500 1502 1503 1505 1505 1505 1505 1504 1503 1503 1502 1501 1499 1497 1496 1494 1493 1490 1487 1483 1481 1477 1473 1469 1466
1492 1503 1490 1499 1490 1502 1478 1460 1446 1440 1447 1448 1450 1455 1458 1463 1467 1471 1475 1479 1483 1486 1489 1492 1494 1497 1498 1499 1500 1501 1500 1500 1499 1499 1498 1496 1495 1493 1491 1489 1486 1482 1480 1477 1473 1469 1465 1462 1458
1478 1481 1502 1503 1509 1507 1472 1466 1461 1439 1440 1443 1447 1449 1454 1458 1462 1465 1468 1472 1477 1481 1484 1487 1489 1491 1493 1494 1496 1496 1495 1494 1494 1494 1492 1491 1489 1488 1485 1483 1479 1476 1473 1470 1466 1461 1458 1455 1450
1481 1484 1479 1477 1478 1486 1480 1464 1429 1433 1431 1437 1440 1444 1447 1451 1454 1458 1462 1467 1472 1476 1479 1481 1484 1486 1488 1490 1491 1490 1489 1489 1489 1488 1487 1486 1484 1483 1480 1477 1473 1469 1465 1462 1458 1454 1450 1446 1441
1456 1459 1463 1473 1471 1460 1457 1446 1420 1422 1426 1428 1434 1438 1443 1447 1450 1454 1458 1462 1466 1469 1473 1475 1478 1480 1483 1484 1485 1484 1484 1484 1484 1483 1482 1481 1479 1477 1475 1470 1466 1462 1458 1455 1451 1446 1441 1437 1432